Miscellaneous Local Product
Issued by NWS Hastings, NE

Home | Current Version | Previous Version | Text Only | Print | Product List | Glossary On
Versions: 1 2 3 4 5 6 7 8 9 10 11 12 13 14 15 16 17 18 19 20 21 22 23 24 25 26 27 28 29 30 31 32 33 34 35 36 37 38 39 40 41 42 43 44 45 46 47 48 49 50
000
AXUS43 KGID 011302
MISGRI

GID CWA HOURLY WEATHER ROUNDUP
NATIONAL WEATHER SERVICE HASTINGS NE
800 AM CDT FRI AUG 01 2014

NOTE: "FAIR" INDICATES FEW OR NO CLOUDS BELOW 12,000 FEET WITH NO
SIGNIFICANT WEATHER AND/OR OBSTRUCTIONS TO VISIBILITY.

...SOUTH CENTRAL NEBRASKA...

CITY           SKY/WX    TMP DP  RH WIND       PRES   REMARKS
GRAND ISLAND   SUNNY     62  58  86 N5        30.10R
HASTINGS       SUNNY     62  57  83 N6        30.09R
KEARNEY        SUNNY     61  57  88 W7        30.12R
ORD            SUNNY     60  58  92 NW5       30.11R FOG
YORK           SUNNY     59  59 100 N6        30.07R
AURORA         SUNNY     61  61 100 N6        30.08S FOG
LEXINGTON      SUNNY     59  57  94 NW3       30.13R FOG
HOLDREGE       SUNNY     62  60  94 N5        30.12R FOG
HEBRON         SUNNY     62  57  84 NW3       30.05R HAZE

...NEBRASKA PANHANDLE...

CITY           SKY/WX    TMP DP  RH WIND       PRES   REMARKS
CHADRON        SUNNY     57  48  72 CALM      30.15R
ALLIANCE       SUNNY     54  47  77 CALM      30.19R
SCOTTSBLUFF    SUNNY     58  51  78 CALM      30.20R
SIDNEY         SUNNY     58  49  72 NW5       30.21R

...WESTERN AND NORTH CENTRAL NEBRASKA...

CITY           SKY/WX    TMP DP  RH WIND       PRES   REMARKS
VALENTINE      SUNNY     59  55  87 SW6       30.12R
AINSWORTH      SUNNY     61  61 100 S3        30.13R
ONEILL         SUNNY     61  61 100 CALM      30.12R FOG
BROKEN BOW     SUNNY     60  58  92 CALM      30.13R
IMPERIAL       SUNNY     63  55  75 N3        30.15S
NORTH PLATTE   SUNNY     58  54  86 CALM      30.14S
MCCOOK         SUNNY     60  56  86 CALM      30.13R

...EASTERN NEBRASKA...

CITY           SKY/WX    TMP DP  RH WIND       PRES   REMARKS
NORFOLK        SUNNY     61  58  90 CALM      30.10R
SO SIOUX CITY  SUNNY     61  59  93 NW3       30.10R FOG
TEKAMAH        SUNNY     63  60  90 N6        30.08R
ALBION         SUNNY     59  58  97 CALM      30.11R FOG
OMAHA EPPLEY   PTSUNNY   68  61  78 E3        30.07R
OFFUTT AFB     PTSUNNY   67  67  98 E3        30.06R
MILLARD        PTSUNNY   67  62  82 CALM      30.06S
LINCOLN        SUNNY     68  59  73 E8        30.06R
NEBRASKA CITY  PTSUNNY   66  61  83 SE7       30.06R
BEATRICE       SUNNY     66  60  79 SW3       30.03S
FALLS CITY     SUNNY     66  62  87 E9        30.05F

...NORTHERN KANSAS...

CITY           SKY/WX    TMP DP  RH WIND       PRES   REMARKS
GOODLAND       MOSUNNY   59  55  87 W6        30.19R
HILL CITY      MOSUNNY   68  57  68 N8        30.11R
NORTON         SUNNY     63  55  77 NW5       30.11R
PHILLIPSBURG   SUNNY     64  63  94 NW6       30.09R
SMITH CENTER   SUNNY     63  61  94 N9        30.08R
HAYS           SUNNY     63  54  72 NW3       30.08R
RUSSELL        SUNNY     64  59  83 W6        30.05S
CONCORDIA      SUNNY     65  58  78 NW5       30.04R
SALINA         SUNNY     68  57  68 S7        30.04S
TOPEKA         CLOUDY    68  65  90 E3        30.07S



USA.gov is the U.S. government's official web portal to all federal, state and local government web resources and services.